Starlink 32877

operational
NORAD ID: 62960 Int'l Des: 2025-029 Owner: SPXS Country: US Constellation: starlink
LEOCIRCULAR

关于 Starlink 32877

正在加载描述...

实时位置

正在加载3D地球...

即将过境

高度历史

Altitude vs Time

uPlot chart will show altitude changes over time

两行轨道根数

1 62960U 25029N 26035.37809362 .00027877 00000-0 94868-3 0 9994
2 62960 53.1609 27.4534 0001476 106.0256 254.0908 15.30239000 56194
Epoch: Feb 4, 2026 • Age: 8 hours

当前状态

高度 492.7 km
速度 7.62 km/s
星下点 -48.45°S, 55.25°W
发射日期 Feb 11, 2025
运行时间 0.9 years
类型 internet

技术详情

分类 Payload
质量 730.00 kg
干质量 700.00 kg
总质量 730.00 kg
长度 0.30 m
直径 4.10 m
跨度 29.00 m
形状 Box + pan
制造商 SPXS
平台类型 Starlink V2M
阶段状态 In Orbit
所有者/国家 SPXS/US

大型星座

Loading constellations...